Location: Newark
(40.3500°N, 15.2333°E)
Time: 02:21:54
(UTC+00:00)

NOAA 15 - Pass Details

Date: 21 February 2020
Orbit: 797 x 813 km, 98.7° (Epoch: 08 April)

Event Time Altitude Azimuth Distance (km) Brightness Sun altitude
Rises 17:56:18 0° 178° (S) 3,315 7.8 -15.1°
Reaches altitude 10° 17:58:41 10° 183° (S) 2,390 7.1 -15.5°
Maximum altitude 18:03:51 53° 260° (W) 999 5.5 -16.5°
Drops below altitude 10° 18:09:03 10° 337° (NNW) 2,410 7.4 -17.5°
Sets 18:11:28 0° 342° (NNW) 3,346 8.1 -18.0°
